Theta_e
345 343 337 334 333 333 332 333 333 334 334 334 335 336 337 337 336 338 337 336 334 334 334 335 335 334 334 333 334 335 338 337
346 345 343 342 339 334 334 335 336 336 336 336 336 337 337 337 337 336 335 334 335 335 335 333 333 333 334 334 334 334 334 334
342 343 344 344 343 340 336 336 337 338 338 337 337 340 339 338 338 335 335 336 335 333 332 332 332 332 333 333 334 333 332 333
341 342 342 343 342 343 342 341 341 341 342 340 340 340 339 339 338 336 335 334 332 331 331 330 329 328 328 330 330 333 332 332
340 343 342 342 341 343 344 343 342 342 342 342 340 340 339 338 335 333 331 331 328 327 326 327 327 326 326 326 328 330 330 332
339 339 341 341 341 343 342 341 341 341 341 342 340 338 337 337 336 334 331 329 327 326 325 324 323 322 322 323 325 326 328 329
339 339 339 340 340 340 341 341 341 340 341 341 338 337 337 335 334 331 330 327 326 324 322 320 319 318 317 318 321 323 324 325
340 339 339 339 340 340 340 340 339 341 341 339 339 338 335 333 330 329 326 325 322 320 318 317 315 314 314 315 318 319 321 322
339 339 339 339 340 341 340 340 340 340 339 338 339 338 334 331 329 326 323 320 319 317 315 313 312 312 313 314 317 319 319 320
339 339 338 338 340 340 339 338 338 338 337 337 337 335 332 330 327 324 320 318 316 314 312 311 311 312 313 315 316 316 317 318
340 339 338 339 338 338 338 336 336 334 333 335 336 332 329 328 325 322 318 317 315 313 311 310 312 315 315 316 316 316 316 316
342 340 338 338 336 335 335 333 332 333 333 334 333 334 331 325 323 320 318 316 314 311 310 311 314 315 314 315 315 315 314 315
343 339 338 337 335 331 329 328 330 329 330 331 332 331 325 320 320 318 317 315 313 311 311 312 315 314 314 313 313 313 313 313
343 339 337 335 333 330 328 325 324 326 326 325 323 323 320 318 318 317 315 313 311 310 312 312 314 314 314 314 315 312 311 311
342 339 335 334 331 328 325 322 320 319 318 318 316 315 315 313 314 312 312 311 310 310 312 312 313 314 314 315 316 316 311 308
341 337 333 332 328 324 321 322 318 316 313 311 311 310 309 308 309 307 306 306 307 307 310 312 312 311 312 309 312 313 313 310
337 332 329 327 325 322 321 319 312 310 310 307 306 304 304 304 303 303 303 301 302 304 304 305 308 310 311 309 309 310 311 310
321 322 320 320 320 319 318 312 308 306 306 306 306 306 305 304 303 303 302 300 300 299 300 301 303 303 305 307 307 308 309 308
315 315 313 314 315 315 314 314 313 310 309 307 306 306 306 306 304 304 304 303 299 298 297 297 298 300 300 302 301 303 303 306
317 315 315 316 316 316 316 315 313 312 311 309 306 305 304 304 303 301 300 298 297 297 297 300 300 300 302 298 298 298 300 302
Wind_Speed
23 25 30 31 32 32 32 31 30 28 26 24 23 21 21 20 19 17 15 13 11 11 9 8 7 6 5 5 5 6 3 2
22 23 24 24 26 29 30 30 28 27 25 23 22 21 19 18 17 15 14 12 11 10 10 9 9 9 8 7 8 8 4 3
21 22 24 24 23 26 28 28 27 26 25 23 21 15 15 14 13 14 12 12 12 11 10 9 8 8 8 8 7 4 4 4
21 23 24 25 24 23 23 23 22 22 20 20 18 15 15 15 13 14 13 13 12 13 11 9 7 5 5 4 3 6 5 5
24 21 23 24 23 24 24 25 25 24 23 23 18 17 15 15 14 15 14 14 12 10 9 7 6 5 4 5 5 5 6 6
25 24 24 25 23 23 21 24 25 21 24 23 20 19 18 17 16 14 14 13 12 11 9 7 6 4 5 4 5 6 7 8
27 26 26 25 23 24 21 22 23 24 21 23 22 20 20 18 16 16 13 12 11 9 8 8 8 8 7 7 6 7 9 10
31 30 28 27 26 24 23 22 24 24 21 23 22 19 17 17 16 15 14 13 11 10 10 9 8 8 7 8 8 9 10 12
31 28 27 28 28 26 25 25 25 24 22 22 21 19 17 15 13 13 12 10 12 12 11 10 10 10 9 9 9 10 11 14
29 29 28 28 27 26 24 22 23 23 21 21 19 19 17 16 14 13 13 12 12 11 13 14 13 13 12 12 11 12 14 15
30 29 30 28 28 26 24 20 21 19 21 26 20 19 18 16 13 12 12 11 12 13 12 12 13 13 13 13 13 13 14 14
28 29 29 28 28 23 20 18 19 25 27 28 24 26 24 17 14 13 13 11 12 13 13 13 13 14 15 13 12 11 12 12
26 30 29 30 25 22 23 19 25 24 24 26 26 26 24 17 14 13 13 12 12 12 13 14 15 16 18 15 12 10 11 11
28 30 34 35 32 27 20 23 26 25 23 23 23 23 22 17 15 14 13 12 12 13 14 15 15 20 10 13 6 8 8 8
23 28 34 34 28 27 23 26 21 21 20 19 17 16 16 14 11 10 10 9 11 12 13 12 14 16 12 4 4 4 14 9
21 28 32 32 32 29 25 18 13 8 13 14 10 6 4 12 13 11 8 8 8 9 8 8 8 12 8 5 4 8 5 5
17 24 23 23 26 25 21 17 19 22 21 19 16 11 8 8 7 7 7 4 5 5 4 4 5 6 8 4 1 1 3 4
18 21 21 22 24 23 23 24 22 23 20 18 15 12 12 7 5 8 7 1 1 1 1 4 3 3 3 3 2 3 4 4
18 20 20 19 19 20 19 20 20 21 19 19 19 20 20 14 13 14 11 8 5 3 4 6 5 3 2 1 4 4 4 13
15 18 21 20 22 21 21 24 26 26 27 24 24 23 20 21 17 14 17 19 18 15 12 7 6 6 8 5 6 7 6 8
Wind_Direction
175 179 184 184 182 181 181 181 180 179 179 178 178 177 176 174 172 174 178 177 173 168 167 164 161 163 168 158 139 126 138 130
173 180 181 182 185 186 185 184 182 181 180 181 180 179 180 178 180 182 179 176 172 168 162 155 150 147 147 135 120 106 124 124
176 180 183 183 184 187 188 186 185 184 181 182 179 175 179 187 186 189 178 173 167 162 158 152 145 142 145 142 120 133 111 94
180 180 183 181 184 185 183 184 184 182 180 178 177 185 185 184 186 182 178 174 170 167 164 157 139 165 149 121 147 134 118 104
188 179 181 183 182 180 184 183 184 185 179 178 185 185 192 185 180 173 171 172 162 163 161 172 178 173 168 157 153 141 132 103
191 185 184 185 183 177 180 179 180 182 183 182 186 187 189 190 187 183 177 177 178 171 176 167 158 150 150 141 150 146 137 120
194 189 187 186 185 185 183 185 187 186 189 190 193 194 193 189 188 180 181 182 181 177 175 167 159 153 147 137 136 128 125 123
196 194 190 188 191 192 192 195 194 191 196 200 200 198 198 192 183 181 180 178 180 178 173 168 161 152 141 138 134 129 124 123
198 194 194 194 195 195 196 197 195 198 201 197 199 199 193 192 189 185 181 178 169 167 162 161 155 150 148 138 135 131 130 129
199 200 198 199 198 200 202 203 200 200 197 195 194 195 191 185 188 184 180 174 175 173 172 168 166 161 157 154 147 137 135 134
202 202 203 203 201 200 202 204 203 201 202 196 194 192 189 188 189 185 180 183 181 180 179 179 167 159 152 147 145 143 144 144
204 199 201 199 198 196 201 198 201 211 208 204 201 205 201 187 188 183 181 191 191 186 182 178 171 158 144 136 136 137 139 141
198 192 197 193 188 180 191 196 205 205 203 203 204 203 196 187 184 187 186 195 196 188 181 173 164 157 140 130 125 134 145 148
200 192 189 192 199 197 194 188 197 200 196 199 198 198 195 193 183 190 190 193 190 185 183 174 177 174 172 148 150 147 149 155
202 193 190 196 198 184 182 181 183 187 189 195 194 197 197 195 181 178 183 189 191 188 187 189 182 193 196 237 174 192 156 169
194 196 193 194 191 184 180 175 168 177 158 168 159 164 164 180 168 163 160 172 173 174 182 206 218 204 210 242 317 118 186 172
169 171 173 177 181 182 161 141 131 139 142 144 149 141 118 121 131 145 154 173 174 170 189 172 231 267 238 201 190 285 223 168
130 143 148 165 170 168 163 149 137 131 132 126 122 122 118 105 112 117 115 46 35 125 203 175 203 219 225 222 224 242 227 253
124 134 126 145 149 149 141 134 136 145 144 139 149 149 144 152 181 163 148 167 180 166 173 138 131 127 110 349 302 280 262 243
142 145 147 156 157 149 146 142 140 148 149 146 171 170 162 157 175 168 163 167 169 169 174 193 221 250 266 235 227 217 208 217